When you browse on this site, cookies collect data to enhance your experience and personalize the content and advertising you see.
Visit our Privacy Policy to learn more. By continuing to use the site, you agree to this use of cookies and data.
  • En España
  • Lista de países
  • Para 7 días
  • Temperatura del agua
  • Mapa Satelital
  • El tiempo en el mapa
  • Informadores
  • user-avatar
    Iniciar sesión

    Tiempo cada hora Maksyma Hor'koho

    Hoy, 23 Mayo, Jueves

    Tiempo Temperatura Precipitaciones Viento Presión Humedad
    00:00 +14°C° 0 mm 3 mps 754 mmHg 82%
    01:00 +14°C° 0 mm 3 mps 754 mmHg 85%
    02:00 +14°C° 0 mm 3 mps 753 mmHg 87%
    03:00 +14°C° 0.1 mm 3 mps 753 mmHg 87%
    04:00 +14°C° 0.1 mm 3 mps 753 mmHg 87%
    05:00 +14°C° 0.1 mm 3 mps 753 mmHg 87%
    06:00 +17°C° 0 mm 4 mps 753 mmHg 82%
    07:00 +19°C° 0 mm 4 mps 753 mmHg 76%
    08:00 +21°C° 0 mm 4 mps 753 mmHg 70%
    09:00 +22°C° 0.3 mm 5 mps 753 mmHg 61%
    10:00 +25°C° 0.3 mm 5 mps 753 mmHg 53%
    11:00 +26°C° 0.3 mm 6 mps 753 mmHg 44%
    12:00 +26°C° 0 mm 5 mps 753 mmHg 46%
    13:00 +26°C° 0 mm 5 mps 753 mmHg 47%
    14:00 +26°C° 0 mm 5 mps 753 mmHg 49%
    15:00 +26°C° 0 mm 5 mps 753 mmHg 50%
    16:00 +25°C° 0 mm 5 mps 752 mmHg 51%
    17:00 +25°C° 0 mm 4 mps 752 mmHg 52%
    18:00 +22°C° 0 mm 4 mps 753 mmHg 56%
    19:00 +20°C° 0 mm 4 mps 753 mmHg 61%
    20:00 +19°C° 0 mm 4 mps 753 mmHg 66%
    21:00 +18°C° 0 mm 4 mps 753 mmHg 70%
    22:00 +17°C° 0 mm 3 mps 753 mmHg 74%
    23:00 +16°C° 0 mm 3 mps 753 mmHg 77%

    Mañana, 24 Mayo, Viernes

    Tiempo Temperatura Precipitaciones Viento Presión Humedad
    00:00 +16°C° 0 mm 3 mps 753 mmHg 80%
    01:00 +15°C° 0 mm 2 mps 753 mmHg 83%
    02:00 +15°C° 0 mm 2 mps 753 mmHg 86%
    03:00 +15°C° 0 mm 2 mps 753 mmHg 85%
    04:00 +15°C° 0 mm 1 mps 753 mmHg 85%
    05:00 +15°C° 0 mm 1 mps 753 mmHg 85%
    06:00 +18°C° 0 mm 1 mps 753 mmHg 76%
    07:00 +19°C° 0 mm 2 mps 753 mmHg 68%
    08:00 +21°C° 0 mm 2 mps 754 mmHg 59%
    09:00 +24°C° 0 mm 2 mps 753 mmHg 54%
    10:00 +25°C° 0 mm 2 mps 753 mmHg 49%
    11:00 +26°C° 0 mm 3 mps 753 mmHg 44%
    12:00 +26°C° 0 mm 3 mps 753 mmHg 44%
    13:00 +27°C° 0 mm 3 mps 753 mmHg 43%
    14:00 +27°C° 0 mm 4 mps 753 mmHg 42%
    15:00 +26°C° 0 mm 4 mps 753 mmHg 45%
    16:00 +25°C° 0 mm 4 mps 752 mmHg 48%
    17:00 +25°C° 0 mm 4 mps 752 mmHg 51%
    18:00 +22°C° 0 mm 3 mps 752 mmHg 58%
    19:00 +20°C° 0 mm 3 mps 752 mmHg 65%
    20:00 +19°C° 0 mm 2 mps 753 mmHg 71%
    21:00 +19°C° 0 mm 2 mps 753 mmHg 73%
    22:00 +19°C° 0 mm 2 mps 753 mmHg 74%
    23:00 +18°C° 0 mm 2 mps 752 mmHg 75%

    Pasado mañana, 25 Mayo, Sábado

    Tiempo Temperatura Precipitaciones Viento Presión Humedad
    00:00 +18°C° 0 mm 2 mps 752 mmHg 75%
    01:00 +18°C° 0 mm 2 mps 752 mmHg 75%
    02:00 +19°C° 0 mm 1 mps 752 mmHg 75%
    03:00 +19°C° 0 mm 1 mps 752 mmHg 77%
    04:00 +19°C° 0 mm 1 mps 752 mmHg 79%
    05:00 +19°C° 0 mm 1 mps 752 mmHg 81%
    06:00 +20°C° 0 mm 1 mps 752 mmHg 74%
    07:00 +22°C° 0 mm 1 mps 752 mmHg 67%
    08:00 +23°C° 0 mm 1 mps 752 mmHg 60%
    09:00 +24°C° 0.5 mm 2 mps 752 mmHg 57%
    10:00 +25°C° 0.5 mm 2 mps 752 mmHg 53%
    11:00 +26°C° 0.5 mm 2 mps 752 mmHg 49%
    12:00 +26°C° 0 mm 2 mps 752 mmHg 48%
    13:00 +26°C° 0 mm 2 mps 752 mmHg 47%
    14:00 +27°C° 0 mm 2 mps 752 mmHg 46%
    15:00 +26°C° 0 mm 2 mps 751 mmHg 48%
    16:00 +26°C° 0 mm 2 mps 751 mmHg 50%
    17:00 +26°C° 0 mm 3 mps 751 mmHg 51%
    18:00 +25°C° 0.3 mm 3 mps 751 mmHg 57%
    19:00 +22°C° 0.3 mm 3 mps 751 mmHg 63%
    20:00 +21°C° 0.3 mm 3 mps 752 mmHg 69%
    21:00 +19°C° 1.3 mm 3 mps 752 mmHg 74%
    22:00 +18°C° 1.3 mm 3 mps 752 mmHg 80%
    23:00 +17°C° 1.3 mm 4 mps 752 mmHg 85%

    26 Mayo, Domingo

    Tiempo Temperatura Precipitaciones Viento Presión Humedad
    00:00 +17°C° 0.2 mm 3 mps 752 mmHg 86%
    01:00 +16°C° 0.2 mm 3 mps 752 mmHg 88%
    02:00 +16°C° 0.2 mm 3 mps 752 mmHg 90%
    03:00 +16°C° 0 mm 3 mps 752 mmHg 90%
    04:00 +16°C° 0 mm 3 mps 752 mmHg 91%
    05:00 +16°C° 0 mm 3 mps 752 mmHg 91%
    06:00 +18°C° 0 mm 4 mps 753 mmHg 85%
    07:00 +20°C° 0 mm 4 mps 753 mmHg 78%
    08:00 +22°C° 0 mm 4 mps 753 mmHg 72%
    09:00 +23°C° 0.4 mm 5 mps 753 mmHg 66%
    10:00 +25°C° 0.4 mm 5 mps 753 mmHg 60%
    11:00 +27°C° 0.4 mm 5 mps 753 mmHg 54%
    12:00 +27°C° 0.8 mm 5 mps 753 mmHg 52%
    13:00 +28°C° 0.8 mm 5 mps 753 mmHg 51%
    14:00 +28°C° 0.8 mm 5 mps 753 mmHg 49%
    15:00 +27°C° 0.9 mm 5 mps 754 mmHg 53%
    16:00 +27°C° 0.9 mm 5 mps 754 mmHg 57%
    17:00 +26°C° 0.9 mm 4 mps 754 mmHg 61%
    18:00 +24°C° 0.5 mm 3 mps 754 mmHg 67%
    19:00 +22°C° 0.5 mm 3 mps 755 mmHg 72%
    20:00 +20°C° 0.5 mm 2 mps 755 mmHg 78%
    21:00 +20°C° 0 mm 2 mps 756 mmHg 79%
    22:00 +19°C° 0 mm 2 mps 756 mmHg 80%
    23:00 +19°C° 0 mm 2 mps 756 mmHg 81%

    27 Mayo, Lunes

    Tiempo Temperatura Precipitaciones Viento Presión Humedad
    00:00 +18°C° 0 mm 2 mps 757 mmHg 82%
    01:00 +19°C° 0 mm 1 mps 757 mmHg 83%
    02:00 +19°C° 0 mm 1 mps 757 mmHg 84%
    03:00 +19°C° 0 mm 1 mps 757 mmHg 83%
    04:00 +19°C° 0 mm 1 mps 758 mmHg 82%
    05:00 +17°C° 0 mm 0 mps 758 mmHg 81%
    06:00 +19°C° 0 mm 0 mps 758 mmHg 75%
    07:00 +21°C° 0 mm 0 mps 758 mmHg 68%
    08:00 +25°C° 0 mm 1 mps 759 mmHg 61%
    09:00 +26°C° 0 mm 1 mps 759 mmHg 56%
    10:00 +27°C° 0 mm 1 mps 759 mmHg 51%
    11:00 +28°C° 0 mm 2 mps 759 mmHg 46%
    12:00 +28°C° 0 mm 2 mps 759 mmHg 46%
    13:00 +29°C° 0 mm 3 mps 759 mmHg 46%
    14:00 +29°C° 0 mm 3 mps 759 mmHg 45%
    15:00 +28°C° 0 mm 3 mps 759 mmHg 47%
    16:00 +28°C° 0 mm 4 mps 759 mmHg 49%
    17:00 +27°C° 0 mm 4 mps 759 mmHg 51%
    18:00 +25°C° 0 mm 4 mps 759 mmHg 58%
    19:00 +22°C° 0 mm 4 mps 759 mmHg 64%
    20:00 +20°C° 0 mm 3 mps 759 mmHg 71%
    21:00 +19°C° 0 mm 3 mps 759 mmHg 76%
    22:00 +19°C° 0 mm 3 mps 759 mmHg 80%
    23:00 +18°C° 0 mm 3 mps 759 mmHg 84%

    28 Mayo, Martes

    Tiempo Temperatura Precipitaciones Viento Presión Humedad
    00:00 +18°C° 0 mm 3 mps 759 mmHg 86%
    01:00 +17°C° 0 mm 3 mps 759 mmHg 87%
    02:00 +17°C° 0 mm 3 mps 759 mmHg 88%
    03:00 +17°C° 0 mm 3 mps 759 mmHg 87%
    04:00 +17°C° 0 mm 3 mps 759 mmHg 87%
    05:00 +17°C° 0 mm 3 mps 759 mmHg 87%
    06:00 +19°C° 0 mm 4 mps 759 mmHg 80%
    07:00 +21°C° 0 mm 5 mps 759 mmHg 74%
    08:00 +23°C° 0 mm 6 mps 759 mmHg 67%
    09:00 +24°C° 0 mm 7 mps 759 mmHg 64%
    10:00 +26°C° 0 mm 7 mps 759 mmHg 62%
    11:00 +27°C° 0 mm 8 mps 758 mmHg 59%
    12:00 +27°C° 0 mm 8 mps 758 mmHg 58%
    13:00 +28°C° 0 mm 8 mps 758 mmHg 57%
    14:00 +28°C° 0 mm 8 mps 758 mmHg 56%
    15:00 +27°C° 0 mm 8 mps 757 mmHg 58%
    16:00 +27°C° 0 mm 7 mps 757 mmHg 60%
    17:00 +26°C° 0 mm 7 mps 757 mmHg 62%
    18:00 +24°C° 0 mm 6 mps 757 mmHg 67%
    19:00 +22°C° 0 mm 5 mps 757 mmHg 72%
    20:00 +21°C° 0 mm 4 mps 757 mmHg 78%
    21:00 +20°C° 0 mm 4 mps 757 mmHg 79%
    22:00 +20°C° 0 mm 4 mps 757 mmHg 81%
    23:00 +20°C° 0 mm 4 mps 757 mmHg 83%
    Mostrar más